[[{"header":{"parameterUnit":"m.s-1","parameterCategory":1,"la1":30.2991,"la2":30.254,"lo1":-89.0895,"lo2":-89.0444,"dy":0.0017,"dx":0.0017,"nx":28,"ny":28,"refTime":"2025-01-14T09:00:00:Z","depth":0,"parameterNumber":2,"parameterNumberName":"U-component_of_WINDS"},"data":[0,0,0,0,0,0,0,0,0,0,0,0,0,0,0,0,0,0,0,0,0,0,0,0,0,0,0,0,0,0,0,0,0,0,0,0,0,0,0,0,0,0,0,0,0,0,0,0,0,0,0,0,0,0,0,0,0,0,-1.8019,-1.802,0,-1.8084,-1.8085,-1.8086,-1.8024,-1.8021,-1.8019,-1.8017,-1.8085,-1.8089,-1.8093,0,0,0,0,0,0,0,0,0,0,0,0,0,-1.7841,-1.7845,-1.8019,-1.802,-1.802,-1.8084,-1.8085,-1.8086,-1.8024,-1.8021,-1.8018,-1.8015,-1.8084,-1.8089,-1.8094,0,0,0,0,0,0,0,0,0,0,0,0,0,-1.7914,-1.7846,-1.8019,-1.7997,-1.7996,-1.8084,-1.8085,-1.8086,-1.8025,-1.8021,-1.8017,-1.8014,-1.8082,-1.8088,-1.8095,-1.8207,0,0,-1.8113,-1.8116,0,0,0,0,0,0,0,0,-1.791,-1.792,-1.8,-1.7999,-1.7998,-1.8042,-1.8047,-1.8127,-1.8026,-1.8014,-1.8016,-1.8012,-1.8074,-1.8081,-1.8101,-1.821,-1.8213,-1.8114,-1.8118,-1.812,-1.8122,0,0,0,0,0,0,0,-1.7905,-1.7917,-1.8045,-1.8001,-1.8,-1.7985,-1.7991,-1.8062,-1.8064,-1.8015,-1.801,-1.8019,-1.8073,-1.8095,-1.8102,-1.8214,-1.8114,-1.8119,-1.8123,-1.8126,-1.8417,-1.8421,0,0,0,0,0,0,-1.7902,-1.7914,-1.8043,-1.8047,-1.7944,-1.7991,-1.7998,-1.8032,-1.8063,-1.8064,-1.8022,-1.8016,-1.8087,-1.8095,-1.8105,-1.8237,-1.812,-1.8126,-1.813,-1.8413,-1.8418,-1.8422,0,0,0,0,0,0,-1.7898,-1.7914,-1.804,-1.7979,-1.7994,-1.7998,-1.8036,-1.8035,-1.8057,-1.8069,-1.8069,-1.8045,-1.8084,-1.8096,-1.8181,-1.8239,-1.8129,-1.8135,-1.8408,-1.8415,-1.842,-1.8505,0,0,0,0,0,0,-1.7894,-1.7913,-1.7956,-1.798,-1.7997,-1.8116,-1.804,-1.8039,-1.8068,-1.806,-1.809,-1.8091,-1.8082,-1.8173,-1.8188,-1.8245,-1.814,-1.8403,-1.8411,-1.8418,-1.8497,-1.8513,-1.8527,0,0,0,0,0,-1.7888,-1.7978,-1.7959,-1.7975,-1.8051,-1.812,-1.8129,-1.8116,-1.8073,-1.8116,-1.8123,-1.809,-1.823,-1.8182,-1.8198,-1.8259,-1.84,-1.8409,-1.8418,-1.849,-1.851,-1.8526,0,0,0,0,0,0,-1.7962,-1.7981,-1.796,-1.8061,-1.8089,-1.8109,-1.8163,-1.8138,-1.8179,-1.8171,-1.8153,-1.816,-1.8251,-1.8263,-1.8209,-1.8369,-1.8308,-1.8321,-1.8357,-1.8376,-1.8391,-1.8386,-1.8145,0,0,0,0,0,-1.799,-1.8044,-1.8058,-1.8146,-1.8161,-1.816,-1.8189,-1.8176,-1.8205,-1.8217,-1.823,-1.826,-1.831,-1.8343,-1.839,-1.8498,-1.8503,-1.8548,-1.8562,-1.8575,-1.8586,-1.8643,-1.8662,-1.8452,-1.8452,-1.8452,0,0,-1.8049,-1.8066,-1.8101,-1.8161,-1.8181,-1.8237,-1.817,-1.8233,-1.8274,-1.8226,-1.8308,-1.8319,-1.835,-1.8447,-1.849,-1.846,-1.8645,-1.8586,-1.8596,-1.8601,-1.8654,-1.8674,-1.8692,-1.8458,-1.8457,-1.8456,0,0,-1.8185,-1.8203,-1.8278,-1.8299,-1.833,-1.8328,-1.8346,-1.837,-1.8375,-1.8456,-1.8421,-1.8469,-1.8557,-1.858,-1.8604,-1.8746,-1.8717,-1.8762,-1.884,-1.8895,-1.8912,-1.8926,-1.8977,-1.8995,-1.8773,-1.8773,-1.8773,0,-1.8254,-1.8337,-1.8319,-1.8384,-1.8411,-1.8369,-1.8444,-1.8466,-1.8511,-1.8531,-1.8496,-1.8603,-1.8622,-1.8723,-1.8757,-1.8778,-1.8797,-1.8759,-1.8911,-1.8925,-1.8939,-1.8986,-1.9005,-1.8778,-1.8778,-1.8777,-1.8777,0,-1.842,-1.8478,-1.8535,-1.8578,-1.8611,-1.8681,-1.8674,-1.871,-1.8693,-1.8695,-1.8778,-1.8798,-1.8848,-1.887,-1.8856,-1.8969,-1.8949,-1.8913,-1.8852,-1.8964,-1.9008,-1.9027,-1.8786,-1.8784,-1.8782,-1.8781,0,0,-1.8607,-1.8638,-1.8659,-1.8677,-1.8707,-1.8752,-1.8819,-1.8866,-1.8897,-1.8929,-1.8985,-1.9059,-1.9025,-1.9051,-1.9039,-1.9087,-1.9197,-1.9045,-1.9045,-1.9072,-1.9322,-1.935,-1.9371,-1.9178,-1.9181,-1.9184,-1.9319,0,-1.8743,-1.8859,-1.8845,-1.8956,-1.9009,-1.8968,-1.9027,-1.9051,-1.9055,-1.91,-1.9103,-1.9155,-1.9107,-1.9122,-1.9168,-1.9174,-1.9247,-1.9164,-1.923,-1.9232,-1.9223,-1.9394,-1.9424,-1.9551,-1.9337,-1.934,-1.9342,0,-1.8918,-1.8955,-1.9071,-1.9092,-1.9113,-1.9166,-1.9207,-1.9251,-1.9278,-1.9276,-1.9305,-1.9283,-1.935,-1.9287,-1.9378,-1.9322,-1.9347,-1.9354,-1.9359,-1.9365,-1.9294,-1.9405,-1.9591,-1.961,-1.9369,-1.9367,-1.9365,0,-1.9042,-1.9121,-1.92,-1.9217,-1.9243,-1.9281,-1.9293,-1.9316,-1.9345,-1.9381,-1.94,-1.9444,-1.9468,-1.9502,-1.9492,-1.9447,-1.9586,-1.9522,-1.9587,-1.9587,-1.9619,-1.9617,-1.9811,-1.9635,-1.9635,-1.9634,-1.9634,0,-1.9196,-1.9269,-1.9256,-1.9305,-1.9385,-1.9367,-1.9446,-1.9454,-1.9474,-1.9523,-1.9491,-1.9538,-1.9523,-1.9569,-1.9561,-1.9638,-1.9649,-1.965,-1.9647,-1.9653,-1.9653,-1.967,-1.9661,-1.9639,-1.9638,-1.9637,-1.9636,0,-1.9348,-1.9342,-1.9426,-1.9443,-1.9449,-1.9507,-1.9521,-1.9567,-1.9566,-1.9629,-1.9643,-1.9643,-1.9695,-1.9688,-1.9748,-1.9742,-1.9837,-1.9824,-1.9828,-1.9825,-1.989,-1.9884,-2.0103,-2.013,-1.9936,-1.9938,-1.9939,0,-1.9447,-1.9502,-1.9524,-1.9554,-1.9569,-1.9619,-1.9648,-1.9631,-1.9663,-1.9696,-1.9738,-1.9787,-1.9825,-1.9911,-1.9916,-1.996,-1.9948,-2.0021,-1.9954,-1.9958,-1.9949,-1.9946,-1.9951,-2.0035,-2.0037,-2.0039,-2.004,0,-1.9623,-1.9617,-1.966,-1.9701,-1.9736,-1.9768,-1.9797,-1.9824,-1.981,-1.9847,-1.9899,-1.9929,-1.9988,-2.0037,-2.0078,-2.0091,-2.0064,-2.0061,-2.0078,-2.0085,-2.0085,-2.0086,-1.9864,-2.0056,-2.0055,-2.0054,-2.0053,-2.0052,-1.9752,-1.9798,-1.982,-1.9868,-1.9888,-1.9915,-1.9958,-1.9962,-2.0006,-2.0052,-2.004,-2.0099,-2.0123,-2.0175,-2.0192,-2.0238,-2.0211,-2.0236,-2.0243,-2.0249,-2.0257,-2.0077,-2.0245,-2.0245,-2.0244,-2.0244,-2.0244,0,-1.9926,-1.9938,-1.9982,-2.0022,-2.006,-2.0029,-2.0059,-2.0093,-2.0145,-2.0169,-2.0207,-2.0267,-2.0314,-2.0322,-2.0366,-2.0401,-2.039,-2.0413,-2.0411,-2.0414,-2.0278,-2.0259,-2.0422,-2.0422,-2.0422,-2.0422,-2.0422,-2.0422,-2.0021,-2.0097,-2.0094,-2.0179,-2.019,-2.0247,-2.0267,-2.0291,-2.031,-2.0378,-2.0416,-2.0421,-2.0438,-2.0483,-2.0524,-2.0525,-2.0543,-2.0572,-2.0568,-2.0442,-2.0424,-2.0407,-2.0388,-2.0576,-2.0576,-2.07,-2.0701,-2.0702]},{"header":{"parameterUnit":"m.s-1","parameterCategory":1,"la1":30.2991,"la2":30.254,"lo1":-89.0895,"lo2":-89.0444,"dy":0.0017,"dx":0.0017,"nx":28,"ny":28,"refTime":"2025-01-14T09:00:00:Z","depth":0,"parameterNumber":3,"parameterNumberName":"V-component_of_WINDS"},"data":[0,0,0,0,0,0,0,0,0,0,0,0,0,0,0,0,0,0,0,0,0,0,0,0,0,0,0,0,0,0,0,0,0,0,0,0,0,0,0,0,0,0,0,0,0,0,0,0,0,0,0,0,0,0,0,0,0,0,-4.9305,-4.9305,0,-4.932,-4.9321,-4.9321,-4.9149,-4.9144,-4.914,-4.9135,-4.9153,-4.9158,-4.9163,0,0,0,0,0,0,0,0,0,0,0,0,0,-4.9128,-4.9132,-4.9305,-4.9305,-4.9305,-4.932,-4.9321,-4.9321,-4.915,-4.9144,-4.9139,-4.9133,-4.9151,-4.9157,-4.9163,0,0,0,0,0,0,0,0,0,0,0,0,0,-4.918,-4.9133,-4.9305,-4.9222,-4.9214,-4.932,-4.9321,-4.9321,-4.9151,-4.9144,-4.9137,-4.913,-4.915,-4.9157,-4.9164,-4.9351,0,0,-4.9186,-4.9189,0,0,0,0,0,0,0,0,-4.9177,-4.9187,-4.9234,-4.9228,-4.922,-4.9225,-4.9264,-4.9331,-4.9153,-4.9175,-4.9135,-4.9127,-4.9183,-4.9187,-4.9206,-4.9351,-4.9352,-4.9187,-4.9191,-4.9194,-4.9196,0,0,0,0,0,0,0,-4.9174,-4.9185,-4.9311,-4.9235,-4.9226,-4.9184,-4.9184,-4.9276,-4.9219,-4.9173,-4.916,-4.9164,-4.9178,-4.9199,-4.9205,-4.9352,-4.9187,-4.9193,-4.9198,-4.92,-4.9652,-4.966,0,0,0,0,0,0,-4.9181,-4.9183,-4.931,-4.9311,-4.9181,-4.9193,-4.9192,-4.9231,-4.9217,-4.9208,-4.9171,-4.9156,-4.919,-4.9196,-4.9205,-4.9422,-4.9194,-4.9201,-4.9205,-4.9645,-4.9654,-4.9662,0,0,0,0,0,0,-4.9178,-4.9194,-4.931,-4.9244,-4.9255,-4.9203,-4.9248,-4.9235,-4.9256,-4.9215,-4.9204,-4.9203,-4.9185,-4.9194,-4.9315,-4.9421,-4.9204,-4.9211,-4.9636,-4.9648,-4.9658,-4.986,0,0,0,0,0,0,-4.9174,-4.9194,-4.9265,-4.9247,-4.926,-4.9421,-4.9254,-4.924,-4.9269,-4.925,-4.9243,-4.9235,-4.918,-4.9306,-4.9323,-4.9427,-4.9217,-4.9626,-4.9641,-4.9654,-4.9844,-4.9877,-4.9905,0,0,0,0,0,-4.9168,-4.9321,-4.9269,-4.9285,-4.9346,-4.9427,-4.9434,-4.9368,-4.9278,-4.9348,-4.9322,-4.9235,-4.9407,-4.9319,-4.9337,-4.9445,-4.9619,-4.9637,-4.9653,-4.983,-4.987,-4.9905,0,0,0,0,0,0,-4.9353,-4.9317,-4.9259,-4.9411,-4.9423,-4.9398,-4.9484,-4.9413,-4.9451,-4.9433,-4.9348,-4.9348,-4.9483,-4.9476,-4.938,-4.9625,-4.9497,-4.9519,-4.9625,-4.9663,-4.9694,-4.9693,-4.9223,0,0,0,0,0,-4.9411,-4.9479,-4.9444,-4.9582,-4.9591,-4.9537,-4.957,-4.9517,-4.9527,-4.9532,-4.9514,-4.9528,-4.9584,-4.9623,-4.9673,-4.9842,-4.9838,-4.9925,-4.9956,-4.9981,-5.0001,-5.009,-5.0128,-4.9719,-4.9718,-4.9718,0,0,-4.9533,-4.9521,-4.957,-4.9619,-4.9622,-4.9695,-4.9543,-4.9626,-4.9679,-4.9544,-4.9657,-4.9646,-4.9655,-4.9801,-4.9864,-4.9799,-5.0113,-5.0003,-5.0024,-5.0029,-5.0111,-5.015,-5.0185,-4.973,-4.9728,-4.9726,0,0,-4.9791,-4.9789,-4.9903,-4.991,-4.9917,-4.988,-4.9908,-4.9894,-4.988,-4.9992,-4.9893,-4.9955,-5.0054,-5.0065,-5.0083,-5.0346,-5.0267,-5.0365,-5.0526,-5.0614,-5.0646,-5.0674,-5.0768,-5.0803,-5.0384,-5.0385,-5.0385,0,-4.9941,-5.0046,-4.9971,-5.0061,-5.0086,-4.9966,-5.0082,-5.0092,-5.0116,-5.0135,-5.0062,-5.0184,-5.0182,-5.0328,-5.0393,-5.0411,-5.0441,-5.0365,-5.0647,-5.0675,-5.07,-5.0789,-5.0824,-5.0397,-5.0395,-5.0394,-5.0393,0,-5.023,-5.0305,-5.0396,-5.0421,-5.0456,-5.0559,-5.05,-5.0544,-5.0489,-5.046,-5.0576,-5.0569,-5.0616,-5.0647,-5.0594,-5.0787,-5.0746,-5.0662,-5.0531,-5.0752,-5.0834,-5.0867,-5.0414,-5.0409,-5.0406,-5.0403,0,0,-5.0605,-5.0587,-5.0622,-5.0632,-5.0632,-5.0688,-5.0785,-5.083,-5.087,-5.089,-5.097,-5.1057,-5.0979,-5.1,-5.0947,-5.1024,-5.1233,-5.093,-5.0928,-5.0987,-5.1445,-5.1509,-5.155,-5.1181,-5.1187,-5.1192,-5.1445,0,-5.0856,-5.102,-5.0956,-5.1126,-5.1194,-5.1082,-5.1167,-5.1176,-5.1152,-5.1207,-5.118,-5.1243,-5.1135,-5.1147,-5.1218,-5.1193,-5.1324,-5.1173,-5.1254,-5.1258,-5.1256,-5.1592,-5.166,-5.1899,-5.1476,-5.1481,-5.1485,0,-5.1171,-5.1204,-5.1381,-5.1368,-5.1395,-5.1472,-5.1508,-5.1562,-5.157,-5.1547,-5.1571,-5.1501,-5.1596,-5.1466,-5.1596,-5.1495,-5.1524,-5.1517,-5.1524,-5.153,-5.1386,-5.1607,-5.1973,-5.201,-5.1535,-5.1531,-5.1527,0,-5.1427,-5.1516,-5.1633,-5.1645,-5.1633,-5.169,-5.1688,-5.1689,-5.172,-5.1752,-5.1772,-5.1815,-5.1838,-5.1873,-5.1817,-5.1728,-5.1955,-5.182,-5.1939,-5.1941,-5.1992,-5.199,-5.2369,-5.2012,-5.2011,-5.201,-5.201,0,-5.1715,-5.1827,-5.1748,-5.182,-5.1943,-5.1868,-5.1992,-5.1978,-5.198,-5.2047,-5.1953,-5.2019,-5.194,-5.1999,-5.1956,-5.207,-5.2081,-5.2066,-5.2053,-5.2074,-5.2076,-5.2092,-5.2074,-5.202,-5.2018,-5.2016,-5.2014,0,-5.2021,-5.1972,-5.2093,-5.2072,-5.2069,-5.2161,-5.2143,-5.2209,-5.2178,-5.2265,-5.2281,-5.2234,-5.2298,-5.2245,-5.2307,-5.2278,-5.2429,-5.2393,-5.2427,-5.2417,-5.2539,-5.2528,-5.2942,-5.2992,-5.2603,-5.2606,-5.261,0,-5.2208,-5.2292,-5.228,-5.2318,-5.2322,-5.2385,-5.2417,-5.2347,-5.2383,-5.2399,-5.2464,-5.2519,-5.256,-5.2668,-5.2639,-5.2686,-5.265,-5.2791,-5.2656,-5.2675,-5.2652,-5.2648,-5.2656,-5.2819,-5.2824,-5.2827,-5.283,0,-5.2545,-5.2516,-5.2565,-5.2606,-5.2646,-5.2675,-5.2697,-5.2734,-5.2662,-5.2708,-5.2772,-5.2804,-5.2867,-5.2924,-5.2961,-5.2959,-5.2884,-5.2873,-5.2903,-5.2926,-5.2943,-5.2936,-5.2502,-5.2864,-5.2861,-5.2858,-5.2856,-5.2855,-5.2797,-5.2866,-5.2869,-5.2927,-5.2935,-5.2958,-5.3019,-5.2996,-5.3048,-5.3094,-5.3049,-5.3127,-5.3133,-5.3175,-5.3183,-5.3242,-5.3183,-5.3227,-5.3238,-5.325,-5.3268,-5.2933,-5.3249,-5.3248,-5.3247,-5.3246,-5.3245,0,-5.3128,-5.3125,-5.3178,-5.3211,-5.3257,-5.3182,-5.3202,-5.3245,-5.3314,-5.3326,-5.3368,-5.3442,-5.3497,-5.3473,-5.352,-5.3573,-5.354,-5.3588,-5.3583,-5.3584,-5.3317,-5.3287,-5.3614,-5.3614,-5.3614,-5.3614,-5.3614,-5.3614,-5.3306,-5.342,-5.3393,-5.351,-5.3505,-5.358,-5.3598,-5.3619,-5.3628,-5.3714,-5.3759,-5.3743,-5.374,-5.3787,-5.3834,-5.3825,-5.3848,-5.3909,-5.3888,-5.3639,-5.3603,-5.3568,-5.3539,-5.3914,-5.3915,-5.415,-5.4152,-5.4154]}]]